Back to catalog

STARLINK-35886

AliveCommunicationsVLEO
NORAD 66838·PAYLOAD·🇺🇸 United States

Launched Dec 2, 2025 from Vandenberg Space Force Base

Loading…

Next Passes (next 24 hours)

TLE

FreshSource: CelesTrak SupGP

Epoch: Sep 15, 2026, 03:14 UTC

1 66838C 25280T   26258.13520833 -.00020790  00000+0 -17423-2 0  2582
2 66838  70.0013 216.6809 0003005 271.4877 165.4326 14.98340591    12

Track STARLINK-35886 in real time with AllMySat

Download on the App Store